Location: Unspecified
(40.9447°N, 78.9903°W)
Time: 15:07:07
(UTC-05:00)

N. Korean satellite - Visible Passes

Search period start: 16 January 2022 00:00
Search period end: 26 January 2022 00:00
Orbit: 446 x 492 km, 97.3° (Epoch: 16 January)

Date Brightness Start Highest point End Pass type
(mag) Time Alt. Az. Time Alt. Az. Time Alt. Az.
16 Jan9.405:51:20SSW05:51:20SSW05:42:39Nvisible
16 Jan 10.1 17:52:08 10° WSW 17:53:08 11° W 17:54:08 10° WNW visible
17 Jan9.705:22:02S05:22:02S05:13:36NNEvisible
18 Jan10.104:52:43SSE04:52:43SSE04:44:31NEvisible
18 Jan 8.9 06:18:28 10° NNW 06:18:35 11° NNW 06:18:35 11° NNW visible
19 Jan 8.8 05:48:52 10° N 05:57:24 - SSW 05:49:29 14° N visible
20 Jan 9.1 05:19:43 10° NNE 05:28:01 - S 05:20:23 15° NNE visible
21 Jan 9.6 04:51:03 10° NE 04:58:37 - SSE 04:51:16 11° NE visible
21 Jan 8.5 06:24:22 10° NNW 06:25:20 15° NNW 06:25:20 15° NNW visible
22 Jan10.304:29:11SE04:29:11SE04:22:08NEvisible
22 Jan 8.1 05:54:35 10° N 06:03:13 - SSW 05:56:12 23° NNW visible
23 Jan 8.2 05:25:17 10° NNE 05:33:44 - S 05:27:04 27° NNE visible
24 Jan 9.0 04:56:26 10° NE 05:04:14 - SSE 04:57:55 20° NE visible
24 Jan 8.2 06:30:06 10° NNW 06:31:58 17° NW 06:31:58 17° NW visible
25 Jan 9.9 04:28:29 10° ENE 04:34:43 - SSE 04:28:45 11° ENE visible
25 Jan 7.3 06:00:06 10° N 06:08:44 - SSW 06:02:49 34° NW visible
